Погода в Грузинах

Россия / Тверская область     56°56′10″N   35°02′42″E
темп.,
°C
ветер,
м/с
пор.,
м/с
влажн.,
%
обл.,
%
осадки,
мм/ч
давл.,
гПа
погр.,
м
14 июня, пн
пн1400:00+15ююз11836 0.0 100811
03:00+14з118477 0.0 101010
06:00+16зсз128276 0.0 101190
09:00+21сз126421 0.0 1013604
12:00+23зсз125715 0.4 10131382
15:00+22ссз346680 1.9 1014869
18:00+22ссз236510 1.0 1014904
21:00+17ссв228383 1.1 101525
15 июня, вт
вт1500:00+14ссв22875 0.0 101615
03:00+13св11916 0.0 101511
06:00+15св01843 0.0 101559
09:00+21юз22662 0.0 1014571
12:00+25зюз245141 0.1 10121717
15:00+24юз235398 0.1 10101242
18:00+21з3867100 0.1 1010278
21:00+19з2473100 0.1 101095
16 июня, ср
ср1600:00+17сз3869100 0.0 1011212
03:00+13сз3894100 0.0 1012230
06:00+15сз3890100 0.0 1013427
09:00+18ссз46600 0.0 10141224
12:00+21ссз56415 0.0 10152075
15:00+22ссз56342 0.0 10162147
18:00+21с464123 0.0 10171584
21:00+14ссз366442 0.0 1020114
17 июня, чт
чт1700:00+11ссз24661 0.0 102154
03:00+10сз22700 0.0 102338
06:00+12ссз24720 0.0 1025118
09:00+19с24490 0.0 1025662
12:00+23ссз23390 0.0 10251812
15:00+24зсз23365 0.0 10252158
18:00+24сз23443 0.0 10251644
21:00+18ссз1167100 0.0 102511
18 июня, пт
пт1800:00+15вюв11765 0.0 102611
03:00+13ссз00813 0.0 102710
06:00+16св00750 0.0 102839
09:00+22ю115569 0.0 1027455
12:00+26юз12405 0.0 10271587
15:00+27юз22364 0.0 10262017
18:00+27ююз23463 0.0 10251079
21:00+19юз37760 0.0 1025131